Location: ???? ?????????
(31.1304°N, 31.7111°E)
Time: 11:55:38
(UTC+00:00)

SAR-Lupe-4 - Pass Details

Date: 29 October 2020
Orbit: 481 x 484 km, 98.2° (Epoch: 22 November)

Event Time Altitude Azimuth Distance (km) Brightness Sun altitude
Rises 15:33:41 0° 14° (NNE) 2,544 6.9 -6.4°
Reaches altitude 10° 15:35:45 10° 17° (NNE) 1,661 6.0 -6.8°
Maximum altitude 15:39:18 73° 101° (ESE) 507 3.5 -7.6°
Drops below altitude 10° 15:42:51 10° 187° (S) 1,651 6.5 -8.3°
Sets 15:44:54 0° 189° (S) 2,526 7.5 -8.7°
